User: anonymous   Login
Location: Newark
(48.1500°N, 13.1167°E)
Time: 03:29:59
(UTC+00:00)
Language:

DIWATA 2B (PO-101) - Orbit

View from above orbital plane
View from above orbital plane
View from above satellite
View from above satellite

Ground track
Ground track

The orbit data is extracted from the following two-line orbital elements,

1 43678U 18084H   21332.85386804  .00000457  00000-0  51011-4 0  9990
2 43678  97.9447  99.2009 0008903 222.1842 137.8714 14.91841007167943
Epoch (UTC): 28 November 2021 20:29:34
Eccentricity: 0.0008903
inclination: 97.9447°
perigee height: 586 km
apogee height: 598 km
right ascension of ascending node: 99.2009°
argument of perigee: 222.1842°
revolutions per day: 14.91841007
mean anomaly at epoch: 137.8714°
orbit number at epoch: 16794

The dashed part of the orbit path shows where the satellite is in the earth's shadow,  

DLR